WXM80 ListenWXM80 Stop

You find our weather info also at:

UK Metoffice

WeatherCloud

Weather Underground

Northeastern Weather Network

AWEKAS

Citizen Weather Observer Program (CWOP)

HAMweather, WeatherForYou, PWS Weather


Weather Underground History page Text

Daily Summary for April 1, 2017 Units:  English    Metric   Both
« Previous Day
Next Day »
Daily Weekly Monthly Yearly Custom
  High: Low: Average:
Temperature: 44.7 °F 37.0 °F 40.5 °F
Dew Point: 39.1 °F 36.2 °F 37.4 °F
Humidity: 97 % 76 % 89 %
Wind Speed: 21.8 mph 0.0 mph 8.4 mph
Wind Gust: 28.8 mph - -
Wind:- - East
Pressure: 30.00 in 29.61 in -
Precipitation: 0.00 in    
Historical Graphs
 
 
Tabular Data for April 1, 2017
Time Temperature Dew Point Pressure Wind Wind Speed Wind Gust Humidity Rainfall Rate (Hourly)
00:02 37.6 °F 36.8 °F 29.71 in ENE 13.4 mph 18.4 mph 97 % 0.01 in
00:03 37.6 °F 36.8 °F 29.71 in East 15.3 mph 20.0 mph 97 % 0.01 in
00:08 37.6 °F 36.8 °F 29.70 in ENE 15.7 mph 20.7 mph 97 % 0.01 in
00:13 37.6 °F 36.8 °F 29.71 in ENE 17.4 mph 22.0 mph 97 % 0.01 in
00:18 37.6 °F 36.8 °F 29.71 in NE 14.9 mph 20.7 mph 97 % 0.00 in
00:23 37.7 °F 36.9 °F 29.71 in ENE 16.0 mph 20.7 mph 97 % 0.00 in
00:28 37.7 °F 36.9 °F 29.70 in ENE 15.7 mph 24.2 mph 97 % 0.00 in
00:33 37.8 °F 37.0 °F 29.70 in East 16.6 mph 21.9 mph 97 % 0.00 in
00:38 37.8 °F 37.0 °F 29.69 in ENE 15.5 mph 20.7 mph 97 % 0.00 in
00:43 37.8 °F 37.0 °F 29.69 in ENE 16.3 mph 23.0 mph 97 % 0.00 in
00:48 37.8 °F 37.0 °F 29.69 in ENE 14.1 mph 17.3 mph 97 % 0.00 in
00:53 37.8 °F 37.0 °F 29.68 in NE 18.6 mph 23.0 mph 97 % 0.00 in
00:58 37.9 °F 37.1 °F 29.68 in ESE 16.5 mph 23.0 mph 97 % 0.00 in
01:03 37.9 °F 37.1 °F 29.67 in ENE 18.4 mph 23.0 mph 97 % 0.01 in
01:08 37.9 °F 37.1 °F 29.67 in ENE 18.0 mph 24.0 mph 97 % 0.01 in
01:13 38.0 °F 37.2 °F 29.67 in ENE 17.0 mph 22.0 mph 97 % 0.01 in
01:18 38.0 °F 37.2 °F 29.67 in ENE 16.8 mph 23.0 mph 97 % 0.01 in
01:23 38.0 °F 37.2 °F 29.67 in NE 19.7 mph 28.8 mph 97 % 0.01 in
01:28 38.0 °F 37.2 °F 29.67 in ENE 16.7 mph 21.9 mph 97 % 0.01 in
01:33 38.1 °F 37.3 °F 29.66 in East 19.2 mph 26.0 mph 97 % 0.01 in
01:38 38.0 °F 37.2 °F 29.66 in NE 18.9 mph 24.2 mph 97 % 0.01 in
01:43 38.1 °F 37.3 °F 29.66 in ENE 18.2 mph 24.2 mph 97 % 0.01 in
01:48 38.1 °F 37.3 °F 29.66 in ENE 14.0 mph 26.5 mph 97 % 0.01 in
01:53 38.2 °F 37.4 °F 29.66 in ENE 21.8 mph 26.5 mph 97 % 0.01 in
01:58 38.2 °F 37.4 °F 29.66 in NE 15.9 mph 23.0 mph 97 % 0.01 in
02:03 38.2 °F 37.4 °F 29.66 in ENE 16.7 mph 20.7 mph 97 % 0.00 in
02:08 38.2 °F 37.4 °F 29.65 in ENE 16.5 mph 23.0 mph 97 % 0.00 in
02:13 38.1 °F 37.3 °F 29.65 in East 17.9 mph 22.0 mph 97 % 0.00 in
02:18 38.1 °F 37.3 °F 29.64 in ENE 15.8 mph 23.0 mph 97 % 0.00 in
02:23 38.0 °F 37.0 °F 29.64 in ENE 15.9 mph 26.5 mph 96 % 0.00 in
02:28 38.1 °F 37.1 °F 29.63 in ENE 16.5 mph 23.0 mph 96 % 0.00 in
02:34 38.1 °F 37.1 °F 29.63 in East 18.1 mph 24.2 mph 96 % 0.00 in
02:39 38.1 °F 37.1 °F 29.63 in ENE 15.9 mph 23.0 mph 96 % 0.00 in
02:44 38.1 °F 37.1 °F 29.62 in ENE 21.3 mph 26.5 mph 96 % 0.00 in
02:49 38.1 °F 37.3 °F 29.62 in ENE 19.2 mph 23.0 mph 97 % 0.00 in
02:54 38.1 °F 37.1 °F 29.62 in ENE 18.2 mph 23.0 mph 96 % 0.00 in
02:59 38.1 °F 37.1 °F 29.62 in East 18.6 mph 26.5 mph 96 % 0.00 in
03:04 38.1 °F 37.1 °F 29.62 in ENE 15.6 mph 19.6 mph 96 % 0.00 in
03:09 38.0 °F 37.0 °F 29.62 in ENE 17.8 mph 24.2 mph 96 % 0.00 in
03:14 38.0 °F 37.0 °F 29.61 in ENE 16.6 mph 24.2 mph 96 % 0.00 in
03:19 37.9 °F 36.9 °F 29.61 in ENE 14.8 mph 23.0 mph 96 % 0.00 in
03:24 37.9 °F 36.9 °F 29.61 in ENE 14.6 mph 24.2 mph 96 % 0.00 in
03:29 37.9 °F 36.9 °F 29.61 in ENE 15.5 mph 19.6 mph 96 % 0.00 in
03:34 37.9 °F 36.9 °F 29.62 in East 13.7 mph 22.0 mph 96 % 0.00 in
03:39 37.9 °F 37.1 °F 29.62 in ENE 11.9 mph 18.0 mph 97 % 0.00 in
03:44 37.9 °F 37.1 °F 29.62 in ENE 11.9 mph 17.0 mph 97 % 0.00 in
03:49 37.8 °F 37.0 °F 29.62 in NE 10.6 mph 17.3 mph 97 % 0.00 in
03:54 37.8 °F 37.0 °F 29.62 in NE 8.5 mph 16.1 mph 97 % 0.00 in
03:59 37.8 °F 37.0 °F 29.62 in NNE 6.6 mph 12.7 mph 97 % 0.01 in
04:04 37.8 °F 37.0 °F 29.62 in ENE 7.3 mph 11.5 mph 97 % 0.01 in
04:09 37.7 °F 36.9 °F 29.61 in ENE 7.3 mph 15.0 mph 97 % 0.01 in
04:14 37.7 °F 36.9 °F 29.61 in NE 7.3 mph 9.2 mph 97 % 0.01 in
04:19 37.6 °F 36.8 °F 29.61 in NE 8.6 mph 11.5 mph 97 % 0.01 in
04:24 37.5 °F 36.7 °F 29.61 in NNE 5.2 mph 11.0 mph 97 % 0.01 in
04:29 37.5 °F 36.7 °F 29.61 in NE 7.1 mph 10.4 mph 97 % 0.01 in
04:34 37.4 °F 36.6 °F 29.62 in NNE 6.2 mph 10.0 mph 97 % 0.01 in
04:39 37.4 °F 36.6 °F 29.62 in NNE 8.6 mph 13.8 mph 97 % 0.01 in
04:44 37.4 °F 36.6 °F 29.62 in NNE 10.3 mph 17.3 mph 97 % 0.01 in
04:49 37.3 °F 36.5 °F 29.63 in NE 7.6 mph 13.8 mph 97 % 0.01 in
04:54 37.3 °F 36.5 °F 29.62 in NNE 8.0 mph 19.6 mph 97 % 0.01 in
04:59 37.3 °F 36.5 °F 29.63 in ENE 9.6 mph 16.1 mph 97 % 0.00 in
05:04 37.2 °F 36.4 °F 29.63 in NE 7.0 mph 11.5 mph 97 % 0.00 in
05:09 37.2 °F 36.4 °F 29.62 in NNE 9.2 mph 16.1 mph 97 % 0.00 in
05:14 37.2 °F 36.4 °F 29.63 in ENE 7.1 mph 11.5 mph 97 % 0.00 in
05:15 37.2 °F 36.4 °F 29.62 in NNE 7.2 mph 13.0 mph 97 % 0.00 in
05:20 37.1 °F 36.3 °F 29.63 in NE 8.1 mph 10.4 mph 97 % 0.00 in
05:25 37.1 °F 36.3 °F 29.63 in NNE 8.5 mph 13.8 mph 97 % 0.00 in
05:30 37.1 °F 36.3 °F 29.63 in NNE 8.6 mph 12.7 mph 97 % 0.00 in
05:35 37.1 °F 36.3 °F 29.63 in NE 12.5 mph 18.4 mph 97 % 0.00 in
05:40 37.1 °F 36.3 °F 29.63 in NNE 11.0 mph 18.4 mph 97 % 0.00 in
05:45 37.1 °F 36.3 °F 29.64 in NNE 10.6 mph 16.1 mph 97 % 0.00 in
05:50 37.0 °F 36.2 °F 29.64 in NE 11.4 mph 18.4 mph 97 % 0.00 in
05:55 37.0 °F 36.2 °F 29.64 in NNE 12.8 mph 15.0 mph 97 % 0.00 in
06:00 37.0 °F 36.2 °F 29.64 in NNW 13.6 mph 19.0 mph 97 % 0.00 in
06:05 37.0 °F 36.2 °F 29.64 in NNE 11.3 mph 23.0 mph 97 % 0.00 in
06:10 37.1 °F 36.3 °F 29.64 in NNE 13.0 mph 16.1 mph 97 % 0.01 in
06:15 37.1 °F 36.3 °F 29.65 in NNE 11.4 mph 17.3 mph 97 % 0.01 in
06:20 37.1 °F 36.3 °F 29.65 in NE 10.8 mph 20.7 mph 97 % 0.01 in
06:25 37.1 °F 36.3 °F 29.65 in NNE 11.6 mph 18.4 mph 97 % 0.01 in
06:30 37.1 °F 36.3 °F 29.65 in NNE 11.2 mph 18.4 mph 97 % 0.01 in
06:35 37.1 °F 36.3 °F 29.65 in ENE 8.1 mph 16.1 mph 97 % 0.01 in
06:40 37.1 °F 36.3 °F 29.65 in North 14.1 mph 17.3 mph 97 % 0.01 in
06:45 37.1 °F 36.3 °F 29.65 in NNE 10.1 mph 13.8 mph 97 % 0.01 in
06:50 37.1 °F 36.3 °F 29.65 in NE 12.7 mph 18.4 mph 97 % 0.01 in
06:55 37.1 °F 36.3 °F 29.65 in NE 11.2 mph 17.3 mph 97 % 0.01 in
07:00 37.1 °F 36.3 °F 29.66 in NNE 11.2 mph 19.6 mph 97 % 0.01 in
07:05 37.2 °F 36.4 °F 29.66 in NE 9.2 mph 17.3 mph 97 % 0.01 in
07:09 37.2 °F 36.4 °F 29.66 in NNE 10.5 mph 13.0 mph 97 % 0.00 in
07:14 37.2 °F 36.4 °F 29.66 in NE 10.7 mph 16.1 mph 97 % 0.00 in
07:19 37.2 °F 36.4 °F 29.67 in NNW 7.3 mph 12.0 mph 97 % 0.00 in
07:24 37.3 °F 36.5 °F 29.67 in NNE 10.0 mph 16.1 mph 97 % 0.00 in
07:29 37.3 °F 36.3 °F 29.68 in North 8.3 mph 11.5 mph 96 % 0.00 in
07:34 37.3 °F 36.3 °F 29.68 in NNE 6.8 mph 12.0 mph 96 % 0.00 in
07:39 37.4 °F 36.4 °F 29.68 in NNE 8.2 mph 11.5 mph 96 % 0.00 in
07:44 37.4 °F 36.4 °F 29.68 in NNE 10.1 mph 13.8 mph 96 % 0.00 in
07:49 37.5 °F 36.5 °F 29.68 in NNE 7.6 mph 10.4 mph 96 % 0.00 in
07:54 37.5 °F 36.5 °F 29.68 in NNE 8.3 mph 11.5 mph 96 % 0.00 in
07:59 37.6 °F 36.6 °F 29.69 in NNE 6.9 mph 11.5 mph 96 % 0.00 in
08:04 37.6 °F 36.6 °F 29.69 in NNE 10.9 mph 15.0 mph 96 % 0.00 in
08:09 37.6 °F 36.6 °F 29.69 in North 10.0 mph 10.4 mph 96 % 0.00 in
08:14 37.6 °F 36.6 °F 29.69 in NNW 7.9 mph 12.7 mph 96 % 0.00 in
08:19 37.6 °F 36.6 °F 29.69 in NE 10.2 mph 12.7 mph 96 % 0.00 in
08:24 37.7 °F 36.7 °F 29.69 in NE 9.9 mph 15.0 mph 96 % 0.00 in
08:29 37.8 °F 36.8 °F 29.69 in NNE 8.4 mph 13.8 mph 96 % 0.00 in
08:34 37.9 °F 36.9 °F 29.69 in NNE 8.0 mph 13.8 mph 96 % 0.00 in
08:39 37.9 °F 36.9 °F 29.69 in NNE 8.3 mph 18.4 mph 96 % 0.00 in
08:44 38.0 °F 37.0 °F 29.69 in North 6.7 mph 10.4 mph 96 % 0.00 in
08:49 38.0 °F 37.0 °F 29.69 in North 8.8 mph 12.0 mph 96 % 0.00 in
08:54 38.1 °F 36.8 °F 29.70 in NW 9.4 mph 11.5 mph 95 % 0.01 in
08:59 38.1 °F 36.8 °F 29.70 in NNW 8.0 mph 16.1 mph 95 % 0.01 in
09:04 38.2 °F 36.9 °F 29.70 in NNE 10.0 mph 17.3 mph 95 % 0.01 in
09:09 38.4 °F 37.1 °F 29.70 in NNE 10.7 mph 13.0 mph 95 % 0.01 in
09:14 38.6 °F 37.0 °F 29.71 in NNE 7.2 mph 16.1 mph 94 % 0.01 in
09:19 38.7 °F 37.1 °F 29.71 in NNE 8.1 mph 11.5 mph 94 % 0.01 in
09:24 38.7 °F 37.1 °F 29.71 in NNE 7.5 mph 11.5 mph 94 % 0.01 in
09:29 38.8 °F 36.9 °F 29.71 in NNE 8.8 mph 16.1 mph 93 % 0.01 in
09:34 38.9 °F 37.0 °F 29.71 in NNE 9.8 mph 13.8 mph 93 % 0.01 in
09:40 39.1 °F 37.2 °F 29.72 in North 5.9 mph 11.5 mph 93 % 0.01 in
09:45 39.2 °F 37.3 °F 29.72 in North 9.4 mph 13.8 mph 93 % 0.01 in
09:50 39.3 °F 37.4 °F 29.72 in NNE 8.6 mph 15.0 mph 93 % 0.01 in
09:55 39.5 °F 37.4 °F 29.72 in North 9.6 mph 17.3 mph 92 % 0.00 in
10:00 39.6 °F 37.5 °F 29.73 in NE 11.4 mph 18.4 mph 92 % 0.00 in
10:05 39.8 °F 37.7 °F 29.73 in North 9.3 mph 16.1 mph 92 % 0.00 in
10:10 40.0 °F 37.6 °F 29.73 in North 9.0 mph 11.5 mph 91 % 0.00 in
10:15 40.1 °F 37.7 °F 29.73 in North 9.3 mph 13.8 mph 91 % 0.00 in
10:17 40.2 °F 37.8 °F 29.73 in NE 7.3 mph 16.1 mph 91 % 0.00 in
10:22 40.2 °F 37.8 °F 29.73 in NNE 9.7 mph 16.1 mph 91 % 0.00 in
10:27 40.3 °F 37.6 °F 29.74 in NNE 8.4 mph 16.0 mph 90 % 0.00 in
10:32 40.4 °F 37.7 °F 29.74 in NNE 8.3 mph 11.5 mph 90 % 0.00 in
10:37 40.6 °F 37.9 °F 29.74 in NNW 9.2 mph 13.0 mph 90 % 0.00 in
10:42 40.7 °F 38.0 °F 29.73 in NNE 10.1 mph 15.0 mph 90 % 0.00 in
10:47 40.9 °F 38.2 °F 29.73 in NNE 10.0 mph 16.0 mph 90 % 0.00 in
10:52 41.2 °F 38.5 °F 29.74 in North 9.0 mph 17.0 mph 90 % 0.00 in
10:53 41.2 °F 38.5 °F 29.74 in NE 6.7 mph 11.5 mph 90 % 0.00 in
10:58 41.4 °F 38.4 °F 29.74 in NNE 11.1 mph 16.1 mph 89 % 0.00 in
11:03 41.6 °F 38.6 °F 29.74 in NE 10.6 mph 16.1 mph 89 % 0.00 in
11:08 41.9 °F 38.9 °F 29.74 in NNE 7.8 mph 10.4 mph 89 % 0.00 in
11:13 42.1 °F 38.8 °F 29.74 in NNE 9.9 mph 12.0 mph 88 % 0.00 in
11:18 42.4 °F 39.1 °F 29.75 in NNW 8.8 mph 17.3 mph 88 % 0.00 in
11:23 42.5 °F 38.9 °F 29.75 in NNE 7.6 mph 11.5 mph 87 % 0.01 in
11:28 42.7 °F 39.1 °F 29.75 in NNE 9.0 mph 13.0 mph 87 % 0.01 in
11:33 42.7 °F 38.8 °F 29.75 in North 7.4 mph 13.8 mph 86 % 0.01 in
11:38 42.8 °F 38.9 °F 29.75 in North 9.4 mph 12.0 mph 86 % 0.01 in
11:39 42.8 °F 38.9 °F 29.75 in North 9.6 mph 13.8 mph 86 % 0.01 in
11:44 42.9 °F 39.0 °F 29.75 in NNW 8.3 mph 13.0 mph 86 % 0.01 in
11:49 43.0 °F 39.1 °F 29.75 in NNW 8.1 mph 17.3 mph 86 % 0.01 in
11:54 43.0 °F 38.5 °F 29.75 in NNE 9.6 mph 13.8 mph 84 % 0.01 in
11:59 43.1 °F 38.6 °F 29.75 in North 10.6 mph 17.3 mph 84 % 0.01 in
12:04 43.2 °F 38.7 °F 29.75 in NE 11.3 mph 16.1 mph 84 % 0.01 in
12:05 43.2 °F 38.4 °F 29.75 in NNE 12.0 mph 17.3 mph 83 % 0.01 in
12:10 43.2 °F 38.4 °F 29.75 in North 8.9 mph 15.0 mph 83 % 0.01 in
12:15 43.3 °F 38.5 °F 29.75 in North 9.8 mph 12.7 mph 83 % 0.01 in
12:20 43.2 °F 38.4 °F 29.76 in North 9.0 mph 12.7 mph 83 % 0.00 in
12:25 43.3 °F 38.5 °F 29.76 in NE 7.6 mph 11.0 mph 83 % 0.00 in
12:30 43.3 °F 38.5 °F 29.76 in NNE 5.9 mph 11.5 mph 83 % 0.00 in
12:35 43.2 °F 38.4 °F 29.76 in NNE 9.2 mph 18.4 mph 83 % 0.00 in
12:40 43.1 °F 38.3 °F 29.76 in NNE 9.4 mph 13.0 mph 83 % 0.00 in
12:45 43.2 °F 38.4 °F 29.77 in North 6.4 mph 15.0 mph 83 % 0.00 in
12:50 43.3 °F 38.2 °F 29.77 in NNE 4.7 mph 10.4 mph 82 % 0.00 in
12:55 43.3 °F 38.2 °F 29.77 in NNW 7.0 mph 15.0 mph 82 % 0.00 in
13:00 43.3 °F 38.2 °F 29.77 in NNW 5.9 mph 10.0 mph 82 % 0.00 in
13:05 43.3 °F 37.9 °F 29.77 in NNW 9.9 mph 15.0 mph 81 % 0.00 in
13:11 43.4 °F 38.0 °F 29.78 in NNE 8.2 mph 13.8 mph 81 % 0.00 in
13:16 43.4 °F 38.0 °F 29.78 in NNE 6.0 mph 10.4 mph 81 % 0.00 in
13:21 43.4 °F 38.0 °F 29.78 in North 7.6 mph 11.5 mph 81 % 0.00 in
13:26 43.5 °F 37.7 °F 29.77 in North 7.7 mph 12.7 mph 80 % 0.00 in
13:31 43.6 °F 37.8 °F 29.78 in NNE 9.7 mph 13.0 mph 80 % 0.00 in
13:36 43.8 °F 38.0 °F 29.78 in NNE 6.3 mph 11.5 mph 80 % 0.00 in
13:41 43.9 °F 37.8 °F 29.78 in NNE 6.3 mph 11.5 mph 79 % 0.00 in
13:46 43.9 °F 37.8 °F 29.79 in North 7.7 mph 10.4 mph 79 % 0.00 in
13:51 44.0 °F 37.9 °F 29.78 in North 7.0 mph 11.5 mph 79 % 0.00 in
13:56 44.1 °F 38.0 °F 29.78 in North 8.8 mph 12.7 mph 79 % 0.00 in
14:01 44.2 °F 38.1 °F 29.78 in NNE 6.7 mph 13.0 mph 79 % 0.00 in
14:06 44.4 °F 38.3 °F 29.78 in NNE 6.7 mph 11.5 mph 79 % 0.00 in
14:11 44.6 °F 38.2 °F 29.77 in NNE 8.2 mph 12.7 mph 78 % 0.00 in
14:16 44.7 °F 37.9 °F 29.78 in NE 7.8 mph 13.8 mph 77 % 0.00 in
14:21 44.6 °F 38.2 °F 29.78 in North 5.9 mph 9.2 mph 78 % 0.00 in
14:26 44.6 °F 37.5 °F 29.78 in ENE 10.4 mph 13.8 mph 76 % 0.01 in
14:31 44.6 °F 37.8 °F 29.78 in NE 8.0 mph 10.4 mph 77 % 0.01 in
14:35 44.6 °F 37.5 °F 29.79 in NE 8.6 mph 11.5 mph 76 % 0.01 in
14:40 44.5 °F 37.4 °F 29.79 in NNE 7.1 mph 11.5 mph 76 % 0.01 in
14:45 44.4 °F 37.6 °F 29.79 in North 5.6 mph 12.7 mph 77 % 0.01 in
14:51 44.3 °F 37.5 °F 29.79 in NE 8.0 mph 10.4 mph 77 % 0.01 in
14:56 44.3 °F 37.5 °F 29.80 in North 4.5 mph 8.1 mph 77 % 0.01 in
15:01 44.2 °F 37.1 °F 29.80 in NNW 8.2 mph 11.5 mph 76 % 0.01 in
15:06 44.2 °F 37.4 °F 29.80 in North 5.0 mph 8.1 mph 77 % 0.01 in
15:11 44.1 °F 37.3 °F 29.81 in NNE 6.9 mph 9.2 mph 77 % 0.01 in
15:16 44.0 °F 37.3 °F 29.81 in NNE 4.8 mph 8.1 mph 77 % 0.01 in
15:21 44.0 °F 37.6 °F 29.81 in NNW 5.8 mph 9.0 mph 78 % 0.01 in
15:26 44.0 °F 37.3 °F 29.82 in North 3.9 mph 10.4 mph 77 % 0.00 in
15:31 43.9 °F 37.5 °F 29.82 in North 8.0 mph 11.5 mph 78 % 0.00 in
15:36 43.8 °F 37.4 °F 29.82 in North 7.0 mph 11.5 mph 78 % 0.00 in
15:41 43.7 °F 37.3 °F 29.82 in NE 6.5 mph 10.4 mph 78 % 0.00 in
15:46 43.6 °F 37.2 °F 29.83 in North 7.0 mph 10.4 mph 78 % 0.00 in
15:51 43.7 °F 37.3 °F 29.83 in NNE 6.6 mph 11.5 mph 78 % 0.00 in
15:56 43.7 °F 37.6 °F 29.83 in NNE 8.3 mph 13.8 mph 79 % 0.00 in
16:01 43.7 °F 37.3 °F 29.83 in NNE 9.8 mph 16.1 mph 78 % 0.00 in
16:06 43.7 °F 37.6 °F 29.84 in NNW 5.5 mph 9.2 mph 79 % 0.00 in
16:11 43.6 °F 37.5 °F 29.84 in North 6.9 mph 11.5 mph 79 % 0.00 in
16:16 43.5 °F 37.4 °F 29.84 in North 6.8 mph 12.7 mph 79 % 0.00 in
16:21 43.4 °F 37.3 °F 29.85 in NNE 7.0 mph 11.5 mph 79 % 0.00 in
16:26 43.4 °F 37.6 °F 29.84 in NNE 4.4 mph 6.9 mph 80 % 0.00 in
16:31 43.4 °F 37.6 °F 29.85 in North 5.7 mph 8.1 mph 80 % 0.00 in
16:36 43.4 °F 38.0 °F 29.85 in NNW 3.7 mph 9.2 mph 81 % 0.00 in
16:41 43.3 °F 38.2 °F 29.86 in NNE 4.5 mph 6.0 mph 82 % 0.00 in
16:46 43.3 °F 38.5 °F 29.86 in North 6.1 mph 9.0 mph 83 % 0.00 in
16:51 43.2 °F 38.4 °F 29.86 in North 5.6 mph 8.1 mph 83 % 0.01 in
16:56 43.2 °F 38.4 °F 29.86 in NE 6.0 mph 10.4 mph 83 % 0.01 in
17:01 43.1 °F 38.3 °F 29.86 in NNW 5.8 mph 9.2 mph 83 % 0.01 in
17:06 43.2 °F 38.4 °F 29.86 in North 5.9 mph 11.5 mph 83 % 0.01 in
17:11 43.1 °F 38.3 °F 29.87 in NE 7.6 mph 10.4 mph 83 % 0.01 in
17:16 43.1 °F 38.3 °F 29.87 in NNE 8.5 mph 11.5 mph 83 % 0.01 in
17:21 43.0 °F 38.2 °F 29.87 in NE 4.5 mph 5.8 mph 83 % 0.01 in
17:26 43.0 °F 38.2 °F 29.87 in North 4.4 mph 5.8 mph 83 % 0.01 in
17:31 43.0 °F 38.2 °F 29.88 in North 5.4 mph 6.9 mph 83 % 0.01 in
17:36 43.0 °F 38.2 °F 29.88 in NNW 5.7 mph 9.2 mph 83 % 0.01 in
17:41 43.0 °F 38.2 °F 29.89 in North 5.1 mph 8.1 mph 83 % 0.01 in
17:46 43.0 °F 38.2 °F 29.89 in North 3.6 mph 8.1 mph 83 % 0.01 in
17:51 42.9 °F 38.1 °F 29.89 in North 4.7 mph 8.1 mph 83 % 0.00 in
17:57 42.9 °F 38.1 °F 29.89 in NNE 4.3 mph 9.2 mph 83 % 0.00 in
18:02 42.9 °F 38.1 °F 29.90 in NNE 5.5 mph 10.4 mph 83 % 0.00 in
18:07 42.8 °F 38.0 °F 29.90 in NE 6.4 mph 11.5 mph 83 % 0.00 in
18:12 42.8 °F 38.0 °F 29.90 in NNE 4.6 mph 8.1 mph 83 % 0.01 in
18:17 42.8 °F 38.0 °F 29.91 in NNE 6.0 mph 9.0 mph 83 % 0.00 in
18:22 42.8 °F 38.0 °F 29.91 in North 3.0 mph 9.0 mph 83 % 0.00 in
18:27 42.7 °F 38.2 °F 29.92 in North 2.0 mph 7.0 mph 84 % 0.00 in
18:32 42.6 °F 38.1 °F 29.92 in North 6.0 mph 8.0 mph 84 % 0.00 in
18:37 42.5 °F 38.0 °F 29.92 in North 7.0 mph 12.0 mph 84 % 0.00 in
18:42 42.4 °F 37.9 °F 29.92 in NNE 5.0 mph 13.0 mph 84 % 0.00 in
18:47 42.4 °F 38.2 °F 29.92 in North 4.9 mph 9.2 mph 85 % 0.01 in
18:52 42.3 °F 38.1 °F 29.92 in North 6.0 mph 9.0 mph 85 % 0.00 in
18:57 42.2 °F 38.0 °F 29.93 in NNE 7.3 mph 10.4 mph 85 % 0.01 in
19:03 42.1 °F 37.9 °F 29.92 in North 5.5 mph 9.2 mph 85 % 0.02 in
19:08 42.0 °F 37.8 °F 29.93 in NNE 5.2 mph 8.0 mph 85 % 0.02 in
19:13 42.0 °F 37.8 °F 29.94 in NNE 4.0 mph 8.1 mph 85 % 0.01 in
19:18 42.0 °F 37.8 °F 29.94 in NNE 4.9 mph 6.9 mph 85 % 0.01 in
19:23 42.0 °F 37.8 °F 29.94 in NNE 4.9 mph 8.1 mph 85 % 0.01 in
19:28 42.0 °F 37.8 °F 29.94 in NNE 5.0 mph 8.1 mph 85 % 0.01 in
19:33 42.0 °F 37.8 °F 29.94 in North 7.0 mph 10.4 mph 85 % 0.01 in
19:38 42.0 °F 37.8 °F 29.95 in North 4.7 mph 8.1 mph 85 % 0.01 in
19:43 42.1 °F 37.9 °F 29.96 in NNE 5.3 mph 8.1 mph 85 % 0.01 in
19:48 42.0 °F 37.8 °F 29.95 in North 4.9 mph 7.0 mph 85 % 0.01 in
19:53 42.0 °F 37.8 °F 29.96 in NNE 3.6 mph 5.8 mph 85 % 0.01 in
19:58 42.0 °F 38.1 °F 29.96 in North 4.8 mph 6.0 mph 86 % 0.02 in
20:03 42.0 °F 38.1 °F 29.96 in ENE 3.7 mph 7.0 mph 86 % 0.01 in
20:08 42.0 °F 38.1 °F 29.96 in NNE 4.2 mph 7.0 mph 86 % 0.01 in
20:13 41.9 °F 38.0 °F 29.96 in NE 6.4 mph 8.1 mph 86 % 0.01 in
20:18 41.9 °F 38.0 °F 29.96 in NNE 6.1 mph 10.4 mph 86 % 0.01 in
20:23 41.9 °F 38.0 °F 29.96 in NNE 6.3 mph 10.0 mph 86 % 0.01 in
20:28 41.8 °F 37.9 °F 29.97 in NE 4.4 mph 5.8 mph 86 % 0.01 in
20:33 41.8 °F 37.9 °F 29.96 in NNE 4.6 mph 7.0 mph 86 % 0.02 in
20:38 41.8 °F 37.9 °F 29.96 in NNE 5.7 mph 9.2 mph 86 % 0.02 in
20:43 41.7 °F 37.8 °F 29.96 in North 3.7 mph 5.8 mph 86 % 0.02 in
20:48 41.7 °F 37.8 °F 29.96 in NNE 3.0 mph 8.1 mph 86 % 0.02 in
20:53 41.6 °F 38.0 °F 29.97 in NNE 2.2 mph 5.8 mph 87 % 0.02 in
20:58 41.6 °F 38.0 °F 29.97 in North 3.0 mph 5.0 mph 87 % 0.01 in
21:03 41.5 °F 37.9 °F 29.97 in NNE 2.6 mph 3.5 mph 87 % 0.01 in
21:08 41.5 °F 37.9 °F 29.97 in North 2.6 mph 3.5 mph 87 % 0.01 in
21:13 41.4 °F 37.8 °F 29.97 in NNE 0.9 mph 3.5 mph 87 % 0.01 in
21:18 41.3 °F 37.7 °F 29.96 in NNE 1.5 mph 3.5 mph 87 % 0.01 in
21:23 41.3 °F 37.7 °F 29.96 in North 1.9 mph 3.5 mph 87 % 0.01 in
21:28 41.2 °F 37.6 °F 29.97 in North 1.4 mph 4.6 mph 87 % 0.02 in
21:33 41.1 °F 37.5 °F 29.97 in North 2.0 mph 3.5 mph 87 % 0.01 in
21:38 41.1 °F 37.5 °F 29.97 in North 3.2 mph 5.0 mph 87 % 0.01 in
21:43 41.1 °F 37.5 °F 29.97 in NNE 1.5 mph 3.5 mph 87 % 0.01 in
21:48 41.1 °F 37.5 °F 29.98 in North 3.1 mph 4.0 mph 87 % 0.01 in
21:53 41.1 °F 37.5 °F 29.98 in NNW 2.4 mph 3.5 mph 87 % 0.01 in
21:58 41.1 °F 37.2 °F 29.98 in NNW 2.6 mph 3.5 mph 86 % 0.01 in
22:03 41.1 °F 37.2 °F 29.98 in NNW 1.2 mph 4.6 mph 86 % 0.01 in
22:08 41.1 °F 37.2 °F 29.98 in NNW 3.3 mph 4.6 mph 86 % 0.02 in
22:13 41.1 °F 37.2 °F 29.99 in NNW 1.0 mph 3.5 mph 86 % 0.02 in
22:18 41.1 °F 37.2 °F 29.99 in NNW 3.9 mph 4.6 mph 86 % 0.02 in
22:23 41.1 °F 37.2 °F 29.99 in NNE 1.9 mph 3.5 mph 86 % 0.02 in
22:28 41.2 °F 37.3 °F 29.99 in NNW 3.0 mph 5.0 mph 86 % 0.01 in
22:33 41.2 °F 37.0 °F 29.99 in NNE 2.3 mph 5.8 mph 85 % 0.01 in
22:38 41.3 °F 37.1 °F 29.99 in NE 3.1 mph 5.8 mph 85 % 0.01 in
22:43 41.3 °F 37.1 °F 29.99 in NNE 3.3 mph 6.9 mph 85 % 0.01 in
22:48 41.3 °F 37.1 °F 29.99 in North 2.4 mph 5.8 mph 85 % 0.01 in
22:54 41.4 °F 37.2 °F 29.99 in North 3.8 mph 5.8 mph 85 % 0.01 in
22:59 41.4 °F 37.2 °F 30.00 in North 3.3 mph 4.6 mph 85 % 0.01 in
23:04 41.4 °F 37.2 °F 30.00 in NNE 2.3 mph 4.0 mph 85 % 0.02 in
23:09 41.5 °F 37.3 °F 30.00 in North 1.5 mph 3.5 mph 85 % 0.01 in
23:14 41.5 °F 37.3 °F 30.00 in North 2.8 mph 4.6 mph 85 % 0.01 in
23:19 41.5 °F 37.3 °F 30.00 in North 2.3 mph 3.5 mph 85 % 0.01 in
23:24 41.5 °F 37.3 °F 30.00 in NNE 2.1 mph 3.5 mph 85 % 0.01 in
23:29 41.5 °F 37.3 °F 30.00 in North 1.4 mph 3.5 mph 85 % 0.01 in
23:34 41.5 °F 37.3 °F 30.00 in North 0.7 mph 1.2 mph 85 % 0.01 in
23:39 41.5 °F 37.3 °F 30.00 in North 0.1 mph 1.0 mph 85 % 0.01 in
23:44 41.5 °F 37.3 °F 30.00 in NNW 1.0 mph 2.3 mph 85 % 0.01 in
23:49 41.4 °F 37.2 °F 30.00 in NNW 0.7 mph 1.0 mph 85 % 0.01 in
23:54 41.4 °F 37.2 °F 30.00 in NW 0.1 mph 2.3 mph 85 % 0.02 in
23:59 41.4 °F 37.5 °F 30.00 in Calm   2.3 mph 86 % 0.02 in
Crab Meadow Weather
Compliments of Weather Underground - 3 mb

Script developed by  Jim McMurry - jmcmurry@mwt.net Adapted for the template by  Wim van der Kuil - Leuven-Template.eu

Weather Terms: Wind Chill Warning - Extreme wind chills of -30°F or colder.